Time,TemperatureF,DewpointF,PressureIn,WindDirection,WindDirectionDegrees,WindSpeedMPH,WindSpeedGustMPH,Humidity,HourlyPrecipIn,Conditions,Clouds,dailyrainin,SoftwareType,DateUTC
2013-02-28 00:00:00,57.0,38.0,30.19,North,360,14.0,15.0,49,-99.99,,,-99.99,,2013-02-28 06:00:00,
2013-02-28 00:21:00,57.0,38.0,30.19,North,360,14.0,15.0,49,-99.99,,,-99.99,,2013-02-28 06:21:00,
2013-02-28 00:31:00,57.0,38.0,30.19,North,360,14.0,15.0,49,-99.99,,,-99.99,,2013-02-28 06:31:00,
2013-02-28 00:41:00,57.0,38.0,30.19,North,360,14.0,15.0,49,-99.99,,,-99.99,,2013-02-28 06:41:00,
2013-02-28 00:51:00,57.0,38.0,30.19,North,360,14.0,15.0,49,-99.99,,,-99.99,,2013-02-28 06:51:00,
2013-02-28 01:00:00,57.0,36.0,30.19,North,10,16.0,18.0,45,-99.99,,,-99.99,,2013-02-28 07:00:00,
2013-02-28 01:21:00,57.0,36.0,30.19,North,10,16.0,18.0,45,-99.99,,,-99.99,,2013-02-28 07:21:00,
2013-02-28 01:31:00,57.0,36.0,30.19,North,10,16.0,18.0,45,-99.99,,,-99.99,,2013-02-28 07:31:00,
2013-02-28 01:41:00,57.0,36.0,30.19,North,10,16.0,18.0,45,-99.99,,,-99.99,,2013-02-28 07:41:00,
2013-02-28 01:51:00,57.0,36.0,30.19,North,10,16.0,18.0,45,-99.99,,,-99.99,,2013-02-28 07:51:00,
2013-02-28 02:00:00,55.0,34.0,30.21,North,360,16.0,18.0,43,-99.99,,,-99.99,,2013-02-28 08:00:00,
2013-02-28 02:21:00,55.0,34.0,30.21,North,360,16.0,18.0,43,-99.99,,,-99.99,,2013-02-28 08:21:00,
2013-02-28 02:31:00,55.0,34.0,30.21,North,360,16.0,18.0,43,-99.99,,,-99.99,,2013-02-28 08:31:00,
2013-02-28 02:41:00,55.0,34.0,30.21,North,360,16.0,18.0,43,-99.99,,,-99.99,,2013-02-28 08:41:00,
2013-02-28 02:52:00,55.0,34.0,30.21,North,360,16.0,18.0,43,-99.99,,,-99.99,,2013-02-28 08:52:00,
2013-02-28 03:00:00,54.0,32.0,30.20,North,360,20.0,23.0,42,-99.99,,,-99.99,,2013-02-28 09:00:00,
2013-02-28 03:21:00,54.0,32.0,30.20,North,360,20.0,23.0,42,-99.99,,,-99.99,,2013-02-28 09:21:00,
2013-02-28 03:31:00,54.0,32.0,30.20,North,360,20.0,23.0,42,-99.99,,,-99.99,,2013-02-28 09:31:00,
2013-02-28 03:41:00,54.0,32.0,30.20,North,360,20.0,23.0,42,-99.99,,,-99.99,,2013-02-28 09:41:00,
2013-02-28 03:51:00,54.0,32.0,30.20,North,360,20.0,23.0,42,-99.99,,,-99.99,,2013-02-28 09:51:00,
2013-02-28 04:00:00,53.0,33.0,30.21,North,10,24.0,29.0,45,-99.99,,,-99.99,,2013-02-28 10:00:00,
2013-02-28 04:21:00,53.0,33.0,30.21,North,10,24.0,29.0,45,-99.99,,,-99.99,,2013-02-28 10:21:00,
2013-02-28 04:31:00,53.0,33.0,30.21,North,10,24.0,29.0,45,-99.99,,,-99.99,,2013-02-28 10:31:00,
2013-02-28 04:41:00,53.0,33.0,30.21,North,10,24.0,29.0,45,-99.99,,,-99.99,,2013-02-28 10:41:00,
2013-02-28 04:51:00,53.0,33.0,30.21,North,10,24.0,29.0,45,-99.99,,,-99.99,,2013-02-28 10:51:00,
2013-02-28 05:00:00,51.0,32.0,30.23,North,360,21.0,23.0,48,-99.99,,,-99.99,,2013-02-28 11:00:00,
2013-02-28 05:21:00,51.0,32.0,30.23,North,360,21.0,23.0,48,-99.99,,,-99.99,,2013-02-28 11:21:00,
2013-02-28 05:31:00,51.0,32.0,30.23,North,360,21.0,23.0,48,-99.99,,,-99.99,,2013-02-28 11:31:00,
2013-02-28 05:41:00,51.0,32.0,30.23,North,360,21.0,23.0,48,-99.99,,,-99.99,,2013-02-28 11:41:00,
2013-02-28 05:52:00,51.0,32.0,30.23,North,360,21.0,23.0,48,-99.99,,,-99.99,,2013-02-28 11:52:00,
2013-02-28 06:00:00,51.0,33.0,30.24,North,10,23.0,26.0,50,-99.99,,,-99.99,,2013-02-28 12:00:00,
2013-02-28 06:21:00,51.0,33.0,30.24,North,10,23.0,26.0,50,-99.99,,,-99.99,,2013-02-28 12:21:00,
2013-02-28 06:31:00,51.0,33.0,30.24,North,10,23.0,26.0,50,-99.99,,,-99.99,,2013-02-28 12:31:00,
2013-02-28 06:42:00,51.0,33.0,30.24,North,10,23.0,26.0,50,-99.99,,,-99.99,,2013-02-28 12:42:00,
2013-02-28 06:52:00,51.0,33.0,30.24,North,10,23.0,26.0,50,-99.99,,,-99.99,,2013-02-28 12:52:00,
2013-02-28 07:00:00,49.0,32.0,30.26,North,10,21.0,23.0,51,-99.99,,,-99.99,,2013-02-28 13:00:00,
2013-02-28 07:21:00,49.0,32.0,30.26,North,10,21.0,23.0,51,-99.99,,,-99.99,,2013-02-28 13:21:00,
2013-02-28 07:31:00,49.0,32.0,30.26,North,10,21.0,23.0,51,-99.99,,,-99.99,,2013-02-28 13:31:00,
2013-02-28 07:41:00,49.0,32.0,30.26,North,10,21.0,23.0,51,-99.99,,,-99.99,,2013-02-28 13:41:00,
2013-02-28 07:51:00,49.0,32.0,30.26,North,10,21.0,23.0,51,-99.99,,,-99.99,,2013-02-28 13:51:00,
2013-02-28 08:00:00,49.0,33.0,30.28,North,10,21.0,25.0,52,-99.99,,,-99.99,,2013-02-28 14:00:00,
2013-02-28 08:21:00,49.0,33.0,30.28,North,10,21.0,25.0,52,-99.99,,,-99.99,,2013-02-28 14:21:00,
2013-02-28 08:31:00,49.0,33.0,30.28,North,10,21.0,25.0,52,-99.99,,,-99.99,,2013-02-28 14:31:00,
2013-02-28 08:41:00,49.0,33.0,30.28,North,10,21.0,25.0,52,-99.99,,,-99.99,,2013-02-28 14:41:00,
2013-02-28 08:52:00,49.0,33.0,30.28,North,10,21.0,25.0,52,-99.99,,,-99.99,,2013-02-28 14:52:00,
2013-02-28 09:00:00,49.0,32.0,30.29,North,10,24.0,26.0,50,-99.99,,,-99.99,,2013-02-28 15:00:00,
2013-02-28 09:21:00,49.0,32.0,30.29,North,10,24.0,26.0,50,-99.99,,,-99.99,,2013-02-28 15:21:00,
2013-02-28 09:31:00,49.0,32.0,30.29,North,10,24.0,26.0,50,-99.99,,,-99.99,,2013-02-28 15:31:00,
2013-02-28 09:41:00,49.0,32.0,30.29,North,10,24.0,26.0,50,-99.99,,,-99.99,,2013-02-28 15:41:00,
2013-02-28 09:51:00,49.0,32.0,30.29,North,10,24.0,26.0,50,-99.99,,,-99.99,,2013-02-28 15:51:00,
2013-02-28 10:00:00,50.0,29.0,30.30,North,10,26.0,30.0,43,-99.99,,,-99.99,,2013-02-28 16:00:00,
2013-02-28 10:21:00,50.0,29.0,30.30,North,10,26.0,30.0,43,-99.99,,,-99.99,,2013-02-28 16:21:00,
2013-02-28 10:31:00,50.0,29.0,30.30,North,10,26.0,30.0,43,-99.99,,,-99.99,,2013-02-28 16:31:00,
2013-02-28 10:41:00,50.0,29.0,30.30,North,10,26.0,30.0,43,-99.99,,,-99.99,,2013-02-28 16:41:00,
2013-02-28 10:52:00,50.0,29.0,30.30,North,10,26.0,30.0,43,-99.99,,,-99.99,,2013-02-28 16:52:00,
2013-02-28 11:00:00,52.0,28.0,30.30,North,360,22.0,25.0,39,-99.99,,,-99.99,,2013-02-28 17:00:00,
2013-02-28 11:21:00,52.0,28.0,30.30,North,360,22.0,25.0,39,-99.99,,,-99.99,,2013-02-28 17:21:00,
2013-02-28 11:31:00,52.0,28.0,30.30,North,360,22.0,25.0,39,-99.99,,,-99.99,,2013-02-28 17:31:00,
2013-02-28 11:41:00,52.0,28.0,30.30,North,360,22.0,25.0,39,-99.99,,,-99.99,,2013-02-28 17:41:00,
2013-02-28 11:52:00,52.0,28.0,30.30,North,360,22.0,25.0,39,-99.99,,,-99.99,,2013-02-28 17:52:00,
2013-02-28 12:00:00,54.0,28.0,30.28,North,350,18.0,24.0,35,-99.99,,,-99.99,,2013-02-28 18:00:00,
2013-02-28 12:21:00,54.0,28.0,30.28,North,350,18.0,24.0,35,-99.99,,,-99.99,,2013-02-28 18:21:00,
2013-02-28 12:31:00,54.0,28.0,30.28,North,350,18.0,24.0,35,-99.99,,,-99.99,,2013-02-28 18:31:00,
2013-02-28 12:41:00,54.0,28.0,30.28,North,350,18.0,24.0,35,-99.99,,,-99.99,,2013-02-28 18:41:00,
2013-02-28 12:51:00,54.0,28.0,30.28,North,350,18.0,24.0,35,-99.99,,,-99.99,,2013-02-28 18:51:00,
2013-02-28 13:21:00,55.0,23.0,30.26,North,350,22.0,25.0,28,-99.99,,,-99.99,,2013-02-28 19:21:00,
2013-02-28 13:31:00,55.0,23.0,30.26,North,350,22.0,25.0,28,-99.99,,,-99.99,,2013-02-28 19:31:00,
2013-02-28 14:00:00,56.0,24.0,30.22,North,360,17.0,20.0,29,-99.99,,,-99.99,,2013-02-28 20:00:00,
2013-02-28 14:21:00,56.0,24.0,30.22,North,360,17.0,20.0,29,-99.99,,,-99.99,,2013-02-28 20:21:00,
2013-02-28 14:31:00,56.0,24.0,30.22,North,360,17.0,20.0,29,-99.99,,,-99.99,,2013-02-28 20:31:00,
2013-02-28 14:41:00,56.0,24.0,30.22,North,360,17.0,20.0,29,-99.99,,,-99.99,,2013-02-28 20:41:00,
2013-02-28 14:52:00,56.0,24.0,30.22,North,360,17.0,20.0,29,-99.99,,,-99.99,,2013-02-28 20:52:00,
2013-02-28 15:00:00,56.0,26.0,30.21,North,360,15.0,20.0,31,-99.99,,,-99.99,,2013-02-28 21:00:00,
2013-02-28 15:21:00,56.0,26.0,30.21,North,360,15.0,20.0,31,-99.99,,,-99.99,,2013-02-28 21:21:00,
2013-02-28 15:31:00,56.0,26.0,30.21,North,360,15.0,20.0,31,-99.99,,,-99.99,,2013-02-28 21:31:00,
2013-02-28 15:41:00,56.0,26.0,30.21,North,360,15.0,20.0,31,-99.99,,,-99.99,,2013-02-28 21:41:00,
2013-02-28 15:51:00,56.0,26.0,30.21,North,360,15.0,20.0,31,-99.99,,,-99.99,,2013-02-28 21:51:00,
2013-02-28 16:00:00,57.0,26.0,30.20,North,360,14.0,17.0,30,-99.99,,,-99.99,,2013-02-28 22:00:00,
2013-02-28 16:21:00,57.0,26.0,30.20,North,360,14.0,17.0,30,-99.99,,,-99.99,,2013-02-28 22:21:00,
2013-02-28 16:31:00,57.0,26.0,30.20,North,360,14.0,17.0,30,-99.99,,,-99.99,,2013-02-28 22:31:00,
2013-02-28 16:41:00,57.0,26.0,30.20,North,360,14.0,17.0,30,-99.99,,,-99.99,,2013-02-28 22:41:00,
2013-02-28 16:52:00,57.0,26.0,30.20,North,360,14.0,17.0,30,-99.99,,,-99.99,,2013-02-28 22:52:00,
2013-02-28 17:00:00,57.0,26.0,30.21,North,360,13.0,15.0,29,-99.99,,,-99.99,,2013-02-28 23:00:00,
2013-02-28 17:21:00,57.0,26.0,30.21,North,360,13.0,15.0,29,-99.99,,,-99.99,,2013-02-28 23:21:00,
2013-02-28 17:31:00,57.0,26.0,30.21,North,360,13.0,15.0,29,-99.99,,,-99.99,,2013-02-28 23:31:00,
2013-02-28 17:41:00,57.0,26.0,30.21,North,360,13.0,15.0,29,-99.99,,,-99.99,,2013-02-28 23:41:00,
2013-02-28 17:52:00,57.0,26.0,30.21,North,360,13.0,15.0,29,-99.99,,,-99.99,,2013-02-28 23:52:00,
2013-02-28 18:00:00,58.0,26.0,30.22,North,360,13.0,14.0,30,-99.99,,,-99.99,,2013-03-01 00:00:00,
2013-02-28 18:22:00,58.0,26.0,30.22,North,360,13.0,14.0,30,-99.99,,,-99.99,,2013-03-01 00:22:00,
2013-02-28 18:32:00,58.0,26.0,30.22,North,360,13.0,14.0,30,-99.99,,,-99.99,,2013-03-01 00:32:00,
2013-02-28 18:41:00,58.0,26.0,30.22,North,360,13.0,14.0,30,-99.99,,,-99.99,,2013-03-01 00:41:00,
2013-02-28 18:51:00,58.0,26.0,30.22,North,360,13.0,14.0,30,-99.99,,,-99.99,,2013-03-01 00:51:00,
2013-02-28 19:00:00,57.0,29.0,30.22,NNW,340,9.0,13.0,33,-99.99,,,-99.99,,2013-03-01 01:00:00,
2013-02-28 19:21:00,57.0,29.0,30.22,NNW,340,9.0,13.0,33,-99.99,,,-99.99,,2013-03-01 01:21:00,
2013-02-28 19:31:00,57.0,29.0,30.22,NNW,340,9.0,13.0,33,-99.99,,,-99.99,,2013-03-01 01:31:00,
2013-02-28 19:41:00,57.0,29.0,30.22,NNW,340,9.0,13.0,33,-99.99,,,-99.99,,2013-03-01 01:41:00,
2013-02-28 19:51:00,57.0,29.0,30.22,NNW,340,9.0,13.0,33,-99.99,,,-99.99,,2013-03-01 01:51:00,
2013-02-28 20:00:00,56.0,32.0,30.24,NNW,340,7.0,8.0,39,-99.99,,,-99.99,,2013-03-01 02:00:00,
2013-02-28 20:21:00,56.0,32.0,30.24,NNW,340,7.0,8.0,39,-99.99,,,-99.99,,2013-03-01 02:21:00,
2013-02-28 20:31:00,56.0,32.0,30.24,NNW,340,7.0,8.0,39,-99.99,,,-99.99,,2013-03-01 02:31:00,
2013-02-28 20:41:00,56.0,32.0,30.24,NNW,340,7.0,8.0,39,-99.99,,,-99.99,,2013-03-01 02:41:00,
2013-02-28 20:52:00,56.0,32.0,30.24,NNW,340,7.0,8.0,39,-99.99,,,-99.99,,2013-03-01 02:52:00,
2013-02-28 21:00:00,56.0,36.0,30.25,NNW,340,6.0,7.0,47,-99.99,,,-99.99,,2013-03-01 03:00:00,
2013-02-28 21:21:00,56.0,36.0,30.25,NNW,340,6.0,7.0,47,-99.99,,,-99.99,,2013-03-01 03:21:00,
2013-02-28 21:31:00,56.0,36.0,30.25,NNW,340,6.0,7.0,47,-99.99,,,-99.99,,2013-03-01 03:31:00,
2013-02-28 21:41:00,56.0,36.0,30.25,NNW,340,6.0,7.0,47,-99.99,,,-99.99,,2013-03-01 03:41:00,
2013-02-28 21:51:00,56.0,36.0,30.25,NNW,340,6.0,7.0,47,-99.99,,,-99.99,,2013-03-01 03:51:00,
2013-02-28 22:00:00,55.0,37.0,30.26,North,350,6.0,6.0,49,-99.99,,,-99.99,,2013-03-01 04:00:00,
2013-02-28 22:21:00,55.0,37.0,30.26,North,350,6.0,6.0,49,-99.99,,,-99.99,,2013-03-01 04:21:00,
2013-02-28 22:31:00,55.0,37.0,30.26,North,350,6.0,6.0,49,-99.99,,,-99.99,,2013-03-01 04:31:00,
2013-02-28 22:41:00,55.0,37.0,30.26,North,350,6.0,6.0,49,-99.99,,,-99.99,,2013-03-01 04:41:00,
2013-02-28 22:51:00,55.0,37.0,30.26,North,350,6.0,6.0,49,-99.99,,,-99.99,,2013-03-01 04:51:00,
2013-02-28 23:00:00,55.0,37.0,30.27,NNW,340,3.0,3.0,49,-99.99,,,-99.99,,2013-03-01 05:00:00,
2013-02-28 23:22:00,55.0,37.0,30.27,NNW,340,3.0,3.0,49,-99.99,,,-99.99,,2013-03-01 05:22:00,
2013-02-28 23:32:00,55.0,37.0,30.27,NNW,340,3.0,3.0,49,-99.99,,,-99.99,,2013-03-01 05:32:00,
2013-02-28 23:41:00,55.0,37.0,30.27,NNW,340,3.0,3.0,49,-99.99,,,-99.99,,2013-03-01 05:41:00,
2013-02-28 23:52:00,55.0,37.0,30.27,NNW,340,3.0,3.0,49,-99.99,,,-99.99,,2013-03-01 05:52:00,